Regional Weather Roundup
Issued by NWS

Home | Current Version | Previous Version | Graphics & Text | Print | Product List | Glossary On
Versions: 1 2 3 4 5 6 7 8 9 10 11 12 13 14 15 16 17 18 19 20 21 22 23 24 25 26 27 28 29 30 31 32 33 34 35 36 37 38 39 40 41 42 43 44 45 46 47 48 49 50
000
ASUS43 KIND 222209
RWRIN

WEATHER ROUNDUP FOR INDIANA
NATIONAL WEATHER SERVICE INDIANAPOLIS IN
500 PM EST WED FEB 22 2017

NOTE: "FAIR" INDICATES FEW OR NO CLOUDS BELOW 12,000 FEET WITH NO
SIGNIFICANT WEATHER AND/OR OBSTRUCTIONS TO VISIBILITY.

* - STATION DOES NOT REPORT WEATHER SUCH AS PRECIPITATION OR FOG.

+ - STATION NOT QUALITY CONTROLLED BY THE NATIONAL WEATHER SERVICE.
    USE DATA WITH CAUTION...ESPECIALLY DEWPOINT AND RELATIVE
    HUMIDITY OBSERVATIONS.

INZ001>003-010>013-019-020-222300-
NORTHWEST INDIANA

CITY           SKY/WX    TMP DP  RH WIND       PRES   REMARKS
GARY /AIRPORT/ MOSUNNY   66  54  63 S12G23    29.68F
KNOX *+        CLOUDY    63  36  36 S9        29.71F
LA PORTE +     PTSUNNY   64  55  75 SW12      29.71F
MICHIGAN CITY+ PTSUNNY   63  54  72 S10G20    29.71F
MONTICELLO +   PTSUNNY   64  54  70 S13       29.73S
RENSSELAER +   MOSUNNY   66  55  68 S17       29.72R
VALPARAISO     PTSUNNY   65  55  70 S13G22    29.71F

$$

LMZ046-743>745-222300-
SOUTHERN LAKE MICHIGAN

STATION/POSITION TIME  TEMP    WIND        PRES    WAVE
                       AIR SEA DIR/SP/G            HT
                 (UTC) (F)     (DEG/KT/KT) (MB)    (FT)
BURNS HARBOR     2140   63     210/ 19/ 24 1005.8F
MICHIGAN CITY    2140   62     190/ 16/ 18   N/A

$$

INZ004-005-014>016-021>024-222300-
NORTH CENTRAL INDIANA

CITY           SKY/WX    TMP DP  RH WIND       PRES   REMARKS
ELKHART        PTSUNNY   61  54  77 S8        29.73F
GOSHEN         CLOUDY    61  52  72 S10       29.74F
LOGANSPORT +   CLOUDY    63  54  72 S12       29.75S
ROCHESTER +    PTSUNNY   63  54  72 S8        29.74F
SOUTH BEND     CLOUDY    62  54  74 S7        29.73F
WARSAW +       CLOUDY    59  52  77 S5        29.74F

$$

INZ006>009-017-018-025>027-222300-
NORTHEAST INDIANA

CITY           SKY/WX    TMP DP  RH WIND       PRES   REMARKS
ANGOLA *+      CLOUDY    61  52  72 S8        29.74F
AUBURN +       CLOUDY    63  52  67 S5        29.76F
FORT WAYNE     CLOUDY    61  53  75 SW9       29.76F
HUNTINGTON +   CLOUDY    61  54  78 SW6       29.75F
KENDALLVILLE + CLOUDY    61  54  77 SW7       29.75F

$$

INZ028-029-035-036-043>045-051>053-222300-
WEST CENTRAL INDIANA

CITY           SKY/WX    TMP DP  RH WIND       PRES   REMARKS
LAFAYETTE      PTSUNNY   64  54  69 SW8       29.74F
TERRE HAUTE    CLOUDY    69  55  60 S13       29.76S

$$

INZ030>032-037>040-046>048-054>057-064-065-222300-
CENTRAL INDIANA

CITY           SKY/WX    TMP DP  RH WIND       PRES   REMARKS
CP ATTERBURY + CLOUDY    64  55  72 S3        29.78S
COLUMBUS       CLOUDY    64  59  82 S7        29.79S
FRANKFORT +    CLOUDY    67  56  66 SW13      29.77S
GREENWOOD *+   CLOUDY    66  56  70 S8        29.79S
INDIANAPOLIS   PTSUNNY   66  55  67 S12       29.76F
-EAGLE CREEK   CLOUDY    67  54  63 S8        29.76S
KOKOMO +       CLOUDY    64  55  72 SW12      29.76F
MARION +       CLOUDY    63  54  73 S7        29.77F
MT COMFORT *+  CLOUDY    64  54  68 SW12      29.78S
SHELBYVILLE    CLOUDY    65  55  70 S12       29.78S
ZIONSVILLE +   CLOUDY    65  55  69 SW8       29.77S

$$

INZ033-034-041-042-049-050-058-059-222300-
EAST CENTRAL INDIANA

CITY           SKY/WX    TMP DP  RH WIND       PRES   REMARKS
MUNCIE         CLOUDY    64  54  69 S8        29.77F

$$

INZ060-061-067>069-081>083-085>088-222300-
SOUTHWEST INDIANA

CITY           SKY/WX    TMP DP  RH WIND       PRES   REMARKS
EVANSVILLE     MOSUNNY   71  55  56 SW12      29.79S
HUNTINGBURG *+ SUNNY     70  56  61 S14       29.79S
WASHINGTON +   MOSUNNY   70  54  57 S13       29.77S

$$

INZ062-063-066-070>080-084-089>092-222300-
SOUTH CENTRAL AND SOUTHEAST INDIANA

CITY           SKY/WX    TMP DP  RH WIND       PRES   REMARKS
BEDFORD +      MOSUNNY  N/A N/A N/A SW7       29.76F
BLOOMINGTON    CLOUDY    68  54  60 SW5       29.77S
MADISON *+     MOSUNNY   70  52  52 SW10G16   29.81S
NORTH VERNON + PTSUNNY   68  57  68 SW5       29.79F
SEYMOUR +      PTSUNNY   70  57  64 SE6       29.77F

$$




USA.gov is the U.S. government's official web portal to all federal, state and local government web resources and services.